Location: Unspecified
(0.0000°N, 0.0000°E)
Time: 00:17:18
(UTC+00:00)

Envisat - Pass Details

Date: 23 January 2021
Orbit: 764 x 766 km, 98.1° (Epoch: 16 January)

Event Time Altitude Azimuth Distance (km) Brightness Sun altitude
Rises 04:22:26 0° 44° (NE) 3,217 6.5 -25.7°
Reaches altitude 10° 04:25:34 10° 64° (ENE) 2,295 6.0 -25.0°
Maximum altitude 04:28:40 16° 103° (ESE) 1,890 5.9 -24.2°
Drops below altitude 10° 04:31:46 10° 141° (SE) 2,301 6.3 -23.5°
Sets 04:34:54 0° 161° (SSE) 3,230 6.8 -22.8°
